Time,TemperatureF,DewpointF,PressureIn,WindDirection,WindDirectionDegrees,WindSpeedMPH,WindSpeedGustMPH,Humidity,HourlyPrecipIn,Conditions,Clouds,dailyrainin,SoftwareType,DateUTC
2013-10-02 00:01:00,55.7,55.7,30.05,NNW,338,0.0,0.0,100,0.00,SKC,,0.00,WeatherDisplay:10.37,2013-10-02 04:01:00,
2013-10-02 00:02:00,55.7,55.7,30.05,NNW,338,0.0,0.0,100,0.00,SKC,,0.00,WeatherDisplay:10.37,2013-10-02 04:02:00,
2013-10-02 00:03:00,55.7,55.7,30.05,NNW,338,0.0,0.0,100,0.00,SKC,,0.00,WeatherDisplay:10.37,2013-10-02 04:03:00,
2013-10-02 00:04:00,55.7,55.7,30.05,NNW,338,0.0,0.0,100,0.00,SKC,SKC,0.00,WeatherDisplay:10.37,2013-10-02 04:04:00,
2013-10-02 00:07:00,55.7,55.7,30.05,NNW,338,0.0,0.0,100,0.00,SKC,,0.00,WeatherDisplay:10.37,2013-10-02 04:07:00,
2013-10-02 00:09:00,55.6,55.6,30.05,NNW,338,0.0,0.0,100,0.00,SKC,,0.00,WeatherDisplay:10.37,2013-10-02 04:09:00,
2013-10-02 00:14:00,55.6,55.6,30.05,NNW,338,0.0,0.0,100,0.00,SKC,,0.00,WeatherDisplay:10.37,2013-10-02 04:14:00,
2013-10-02 00:19:00,55.4,55.4,30.06,NNW,338,0.0,0.0,100,0.00,SKC,,0.00,WeatherDisplay:10.37,2013-10-02 04:19:00,
2013-10-02 00:24:00,55.4,55.4,30.06,NNW,338,0.0,0.0,100,0.00,SKC,,0.00,WeatherDisplay:10.37,2013-10-02 04:24:00,
2013-10-02 00:29:00,55.4,55.4,30.05,NNW,338,0.0,0.0,100,0.00,SKC,,0.00,WeatherDisplay:10.37,2013-10-02 04:29:00,
2013-10-02 00:34:00,55.4,55.4,30.05,NNW,338,0.0,0.0,100,0.00,SKC,,0.00,WeatherDisplay:10.37,2013-10-02 04:34:00,
2013-10-02 00:39:00,55.6,55.6,30.05,NNW,338,0.0,0.0,100,0.00,SKC,,0.00,WeatherDisplay:10.37,2013-10-02 04:39:00,
2013-10-02 00:44:00,55.6,55.6,30.05,NNW,338,0.0,0.0,100,0.00,SKC,,0.00,WeatherDisplay:10.37,2013-10-02 04:44:00,
2013-10-02 00:49:00,55.9,55.9,30.05,NNW,338,0.0,0.0,100,0.00,SKC,,0.00,WeatherDisplay:10.37,2013-10-02 04:49:00,
2013-10-02 00:54:00,56.5,56.5,30.05,NNW,338,0.0,0.0,100,0.00,SKC,,0.00,WeatherDisplay:10.37,2013-10-02 04:54:00,
2013-10-02 00:59:00,56.8,56.8,30.05,NNW,338,0.0,0.0,100,0.00,SKC,,0.00,WeatherDisplay:10.37,2013-10-02 04:59:00,
2013-10-02 01:04:00,56.8,56.8,30.05,NNW,338,0.0,0.0,100,0.00,SKC,,0.00,WeatherDisplay:10.37,2013-10-02 05:04:00,
2013-10-02 01:09:00,57.0,57.0,30.05,NNW,338,0.0,0.0,100,0.00,SKC,,0.00,WeatherDisplay:10.37,2013-10-02 05:09:00,
2013-10-02 01:14:00,57.0,57.0,30.05,NNW,338,0.0,0.0,100,0.00,SKC,,0.00,WeatherDisplay:10.37,2013-10-02 05:14:00,
2013-10-02 01:19:00,57.2,57.2,30.06,NNW,338,0.0,0.0,100,0.00,SKC,,0.00,WeatherDisplay:10.37,2013-10-02 05:19:00,
2013-10-02 01:24:00,57.4,57.4,30.06,NNW,338,0.0,0.0,100,0.00,SKC,,0.00,WeatherDisplay:10.37,2013-10-02 05:24:00,
2013-10-02 01:29:00,57.4,57.4,30.06,NNW,338,0.0,0.0,100,0.00,SKC,,0.00,WeatherDisplay:10.37,2013-10-02 05:29:00,
2013-10-02 01:34:00,57.4,57.4,30.06,NNW,338,0.0,0.0,100,0.00,SKC,,0.00,WeatherDisplay:10.37,2013-10-02 05:34:00,
2013-10-02 01:39:00,57.2,57.2,30.06,NNW,338,0.0,0.0,100,0.00,SKC,,0.00,WeatherDisplay:10.37,2013-10-02 05:39:00,
2013-10-02 01:44:00,57.0,57.0,30.06,NNW,338,0.0,0.0,100,0.00,SKC,,0.00,WeatherDisplay:10.37,2013-10-02 05:44:00,
2013-10-02 01:49:00,57.0,57.0,30.06,NNW,338,0.0,0.0,100,0.00,SKC,,0.00,WeatherDisplay:10.37,2013-10-02 05:49:00,
2013-10-02 01:54:00,57.0,57.0,30.06,NNW,338,0.0,0.0,100,0.00,SKC,,0.00,WeatherDisplay:10.37,2013-10-02 05:54:00,
2013-10-02 01:59:00,56.8,56.8,30.06,NNW,338,0.0,0.0,100,0.00,SKC,,0.00,WeatherDisplay:10.37,2013-10-02 05:59:00,
2013-10-02 02:04:00,57.0,57.0,30.06,NNW,338,0.0,0.0,100,0.00,SKC,,0.00,WeatherDisplay:10.37,2013-10-02 06:04:00,
2013-10-02 02:09:00,57.2,57.2,30.06,NNW,338,0.0,0.0,100,0.00,SKC,,0.00,WeatherDisplay:10.37,2013-10-02 06:09:00,
2013-10-02 02:14:00,57.0,57.0,30.06,NNW,338,0.0,0.0,100,0.00,SKC,,0.00,WeatherDisplay:10.37,2013-10-02 06:14:00,
2013-10-02 02:19:00,57.0,57.0,30.06,NNW,338,0.0,0.0,100,0.00,SKC,,0.00,WeatherDisplay:10.37,2013-10-02 06:19:00,
2013-10-02 02:24:00,57.0,57.0,30.06,NNW,338,0.0,0.0,100,0.00,SKC,,0.00,WeatherDisplay:10.37,2013-10-02 06:24:00,
2013-10-02 02:29:00,57.2,57.2,30.06,NNW,338,0.0,0.0,100,0.00,SKC,,0.00,WeatherDisplay:10.37,2013-10-02 06:29:00,
2013-10-02 02:34:00,57.0,57.0,30.06,NNW,338,0.0,0.0,100,0.00,SKC,,0.00,WeatherDisplay:10.37,2013-10-02 06:34:00,
2013-10-02 02:39:00,56.8,56.8,30.06,NNW,338,0.0,0.0,100,0.00,SKC,,0.00,WeatherDisplay:10.37,2013-10-02 06:39:00,
2013-10-02 02:44:00,56.6,56.6,30.06,NNW,338,0.0,0.0,100,0.00,SKC,,0.00,WeatherDisplay:10.37,2013-10-02 06:44:00,
2013-10-02 02:49:00,56.5,56.5,30.06,NNW,338,0.0,0.0,100,0.00,SKC,,0.00,WeatherDisplay:10.37,2013-10-02 06:49:00,
2013-10-02 02:54:00,56.5,56.5,30.06,NNW,338,0.0,0.0,100,0.00,SKC,,0.00,WeatherDisplay:10.37,2013-10-02 06:54:00,
2013-10-02 02:59:00,56.3,56.3,30.06,NNW,338,0.0,0.0,100,0.00,SKC,,0.00,WeatherDisplay:10.37,2013-10-02 06:59:00,
2013-10-02 03:04:00,56.1,56.1,30.06,NNW,338,0.0,0.0,100,0.00,SKC,,0.00,WeatherDisplay:10.37,2013-10-02 07:04:00,
2013-10-02 03:09:00,55.9,55.9,30.06,NNW,338,0.0,0.0,100,0.00,SKC,,0.00,WeatherDisplay:10.37,2013-10-02 07:09:00,
2013-10-02 03:14:00,55.9,55.9,30.06,NNW,338,0.0,0.0,100,0.00,SKC,,0.00,WeatherDisplay:10.37,2013-10-02 07:14:00,
2013-10-02 03:19:00,55.6,55.6,30.06,NNW,338,0.0,0.0,100,0.00,SKC,,0.00,WeatherDisplay:10.37,2013-10-02 07:19:00,
2013-10-02 03:24:00,55.6,55.6,30.06,NNW,338,0.0,0.0,100,0.00,SKC,,0.00,WeatherDisplay:10.37,2013-10-02 07:24:00,
2013-10-02 03:29:00,55.4,55.4,30.06,NNW,338,0.0,0.0,100,0.00,SKC,,0.00,WeatherDisplay:10.37,2013-10-02 07:29:00,
2013-10-02 03:34:00,55.2,55.2,30.06,NNW,338,0.0,0.0,100,0.00,SKC,,0.00,WeatherDisplay:10.37,2013-10-02 07:34:00,
2013-10-02 03:39:00,55.2,55.2,30.06,NNW,338,0.0,0.0,100,0.00,SKC,,0.00,WeatherDisplay:10.37,2013-10-02 07:39:00,
2013-10-02 03:44:00,54.8,54.8,30.07,NNW,338,0.0,0.0,100,0.00,SKC,,0.00,WeatherDisplay:10.37,2013-10-02 07:44:00,
2013-10-02 03:49:00,54.8,54.8,30.07,NNW,338,0.0,0.0,100,0.00,SKC,,0.00,WeatherDisplay:10.37,2013-10-02 07:49:00,
2013-10-02 03:54:00,54.7,54.7,30.06,NNW,338,0.0,0.0,100,0.00,SKC,,0.00,WeatherDisplay:10.37,2013-10-02 07:54:00,
2013-10-02 03:59:00,54.7,54.7,30.06,NNW,338,0.0,0.0,100,0.00,SKC,,0.00,WeatherDisplay:10.37,2013-10-02 07:59:00,
2013-10-02 04:04:00,54.8,54.8,30.06,NNW,338,0.0,0.0,100,0.00,SKC,,0.00,WeatherDisplay:10.37,2013-10-02 08:04:00,
2013-10-02 04:09:00,55.0,55.0,30.06,NNW,338,0.0,0.0,100,0.00,SKC,,0.00,WeatherDisplay:10.37,2013-10-02 08:09:00,
2013-10-02 04:14:00,55.0,55.0,30.06,NNW,338,0.0,0.0,100,0.00,SKC,,0.00,WeatherDisplay:10.37,2013-10-02 08:14:00,
2013-10-02 04:19:00,55.4,55.4,30.07,NNW,338,0.0,0.0,100,0.00,SKC,,0.00,WeatherDisplay:10.37,2013-10-02 08:19:00,
2013-10-02 04:24:00,55.6,55.6,30.07,NNW,338,0.0,0.0,100,0.00,SKC,,0.00,WeatherDisplay:10.37,2013-10-02 08:24:00,
2013-10-02 04:29:00,55.9,55.9,30.06,NNW,338,0.0,0.0,100,0.00,SKC,,0.00,WeatherDisplay:10.37,2013-10-02 08:29:00,
2013-10-02 04:34:00,56.6,56.6,30.06,NNW,338,0.0,0.0,100,0.00,SKC,,0.00,WeatherDisplay:10.37,2013-10-02 08:34:00,
2013-10-02 04:39:00,56.6,56.6,30.06,NNW,338,0.0,0.0,100,0.00,SKC,,0.00,WeatherDisplay:10.37,2013-10-02 08:39:00,
2013-10-02 04:44:00,56.5,56.5,30.07,NNW,338,0.0,0.0,100,0.00,SKC,,0.00,WeatherDisplay:10.37,2013-10-02 08:44:00,
2013-10-02 04:49:00,56.6,56.6,30.07,NNW,338,0.0,0.0,100,0.00,SKC,,0.00,WeatherDisplay:10.37,2013-10-02 08:49:00,
2013-10-02 04:54:00,56.6,56.6,30.07,NNW,338,0.0,0.0,100,0.00,SKC,,0.00,WeatherDisplay:10.37,2013-10-02 08:54:00,
2013-10-02 04:59:00,56.5,56.5,30.07,NNW,338,0.0,0.0,100,0.00,SKC,,0.00,WeatherDisplay:10.37,2013-10-02 08:59:00,
2013-10-02 05:04:00,56.5,56.5,30.07,NNW,338,0.0,0.0,100,0.00,SKC,,0.00,WeatherDisplay:10.37,2013-10-02 09:04:00,
2013-10-02 05:09:00,56.5,56.5,30.07,NNW,338,0.0,0.0,100,0.00,SKC,,0.00,WeatherDisplay:10.37,2013-10-02 09:09:00,
2013-10-02 05:14:00,56.3,56.3,30.07,NNW,338,0.0,0.0,100,0.00,SKC,,0.00,WeatherDisplay:10.37,2013-10-02 09:14:00,
2013-10-02 05:19:00,56.3,56.3,30.07,NNW,338,0.0,0.0,100,0.00,SKC,,0.00,WeatherDisplay:10.37,2013-10-02 09:19:00,
2013-10-02 05:24:00,56.3,56.3,30.07,NNW,338,0.0,0.0,100,0.00,SKC,,0.00,WeatherDisplay:10.37,2013-10-02 09:24:00,
2013-10-02 05:29:00,56.5,56.5,30.07,NNW,338,0.0,0.0,100,0.00,SKC,,0.00,WeatherDisplay:10.37,2013-10-02 09:29:00,
2013-10-02 05:34:00,56.3,56.3,30.07,NNW,338,0.0,0.0,100,0.00,SKC,,0.00,WeatherDisplay:10.37,2013-10-02 09:34:00,
2013-10-02 05:39:00,56.3,56.3,30.07,NNW,338,0.0,0.0,100,0.00,SKC,,0.00,WeatherDisplay:10.37,2013-10-02 09:39:00,
2013-10-02 05:44:00,56.3,56.3,30.07,NNW,338,0.0,0.0,100,0.00,SKC,,0.00,WeatherDisplay:10.37,2013-10-02 09:44:00,
2013-10-02 05:49:00,56.3,56.3,30.07,NNW,338,0.0,0.0,100,0.00,SKC,,0.00,WeatherDisplay:10.37,2013-10-02 09:49:00,
2013-10-02 05:54:00,56.1,56.1,30.07,NNW,338,0.0,0.0,100,0.00,SKC,,0.00,WeatherDisplay:10.37,2013-10-02 09:54:00,
2013-10-02 05:59:00,55.9,55.9,30.07,NNW,338,0.0,0.0,100,0.00,SKC,,0.00,WeatherDisplay:10.37,2013-10-02 09:59:00,
2013-10-02 06:04:00,55.9,55.9,30.07,NNW,338,0.0,0.0,100,0.00,SKC,,0.00,WeatherDisplay:10.37,2013-10-02 10:04:00,
2013-10-02 06:09:00,55.9,55.9,30.08,NNW,338,0.0,0.0,100,0.00,SKC,,0.00,WeatherDisplay:10.37,2013-10-02 10:09:00,
2013-10-02 06:14:00,55.9,55.9,30.08,NNW,338,0.0,0.0,100,0.00,SKC,,0.00,WeatherDisplay:10.37,2013-10-02 10:14:00,
2013-10-02 06:19:00,55.7,55.7,30.07,NNW,338,0.0,0.0,100,0.00,SKC,,0.00,WeatherDisplay:10.37,2013-10-02 10:19:00,
2013-10-02 06:24:00,55.7,55.7,30.07,NNW,338,0.0,0.0,100,0.00,SKC,,0.00,WeatherDisplay:10.37,2013-10-02 10:24:00,
2013-10-02 06:29:00,55.6,55.6,30.07,NNW,338,0.0,0.0,100,0.00,SKC,,0.00,WeatherDisplay:10.37,2013-10-02 10:29:00,
2013-10-02 06:34:00,55.4,55.4,30.07,NNW,338,0.0,0.0,100,0.00,SCT,,0.00,WeatherDisplay:10.37,2013-10-02 10:34:00,
2013-10-02 06:39:00,55.2,55.2,30.07,NNW,338,0.0,0.0,100,0.00,SCT,,0.00,WeatherDisplay:10.37,2013-10-02 10:39:00,
2013-10-02 06:44:00,55.2,55.2,30.08,NNW,338,0.0,0.0,100,0.00,SCT,,0.00,WeatherDisplay:10.37,2013-10-02 10:44:00,
2013-10-02 06:49:00,55.2,55.2,30.08,NNW,338,0.0,0.0,100,0.00,SCT,,0.00,WeatherDisplay:10.37,2013-10-02 10:49:00,
2013-10-02 06:54:00,55.4,55.4,30.08,NNW,338,0.0,0.0,100,0.00,SCT,,0.00,WeatherDisplay:10.37,2013-10-02 10:54:00,
2013-10-02 06:59:00,55.4,55.4,30.08,NNW,338,0.0,0.0,100,0.00,SCT,,0.00,WeatherDisplay:10.37,2013-10-02 10:59:00,
2013-10-02 07:04:00,55.4,55.4,30.08,NNW,338,0.0,0.0,100,0.00,SCT,,0.00,WeatherDisplay:10.37,2013-10-02 11:04:00,
2013-10-02 07:09:00,55.2,55.2,30.08,NNW,338,0.0,0.0,100,0.00,SCT,,0.00,WeatherDisplay:10.37,2013-10-02 11:09:00,
2013-10-02 07:14:00,55.2,55.2,30.08,NNW,338,0.0,0.0,100,0.00,SCT,,0.00,WeatherDisplay:10.37,2013-10-02 11:14:00,
2013-10-02 07:19:00,55.2,55.2,30.08,NNW,338,0.0,0.0,100,0.00,SCT,,0.00,WeatherDisplay:10.37,2013-10-02 11:19:00,
2013-10-02 07:24:00,55.0,55.0,30.08,NNW,338,0.0,0.0,100,0.00,SCT,,0.00,WeatherDisplay:10.37,2013-10-02 11:24:00,
2013-10-02 07:29:00,55.0,55.0,30.08,NNW,338,0.0,0.0,100,0.00,SCT,,0.00,WeatherDisplay:10.37,2013-10-02 11:29:00,
2013-10-02 07:34:00,54.8,54.8,30.08,NNW,338,0.0,0.0,100,0.00,SCT,,0.00,WeatherDisplay:10.37,2013-10-02 11:34:00,
2013-10-02 07:39:00,54.8,54.8,30.08,NNW,338,0.0,0.0,100,0.00,SCT,,0.00,WeatherDisplay:10.37,2013-10-02 11:39:00,
2013-10-02 07:44:00,55.0,55.0,30.09,NNW,338,0.0,0.0,100,0.00,SCT,,0.00,WeatherDisplay:10.37,2013-10-02 11:44:00,
2013-10-02 07:49:00,55.0,55.0,30.09,NNW,338,0.0,0.0,100,0.00,SCT,,0.00,WeatherDisplay:10.37,2013-10-02 11:49:00,
2013-10-02 07:54:00,55.2,55.2,30.09,NNW,338,0.0,0.0,100,0.00,SCT,,0.00,WeatherDisplay:10.37,2013-10-02 11:54:00,
2013-10-02 07:59:00,56.6,56.6,30.09,NNW,338,0.0,0.0,100,0.00,SCT,,0.00,WeatherDisplay:10.37,2013-10-02 11:59:00,
2013-10-02 08:04:00,57.4,57.4,30.09,NNW,338,0.0,0.0,100,0.00,BKN,,0.00,WeatherDisplay:10.37,2013-10-02 12:04:00,
2013-10-02 08:09:00,57.7,57.7,30.10,NNW,338,0.0,0.0,100,0.00,BKN,,0.00,WeatherDisplay:10.37,2013-10-02 12:09:00,
2013-10-02 08:14:00,57.9,57.9,30.10,NNW,338,0.0,0.0,100,0.00,BKN,,0.00,WeatherDisplay:10.37,2013-10-02 12:14:00,
2013-10-02 08:19:00,58.1,58.1,30.10,NNW,338,0.0,0.0,100,0.00,BKN,,0.00,WeatherDisplay:10.37,2013-10-02 12:19:00,
2013-10-02 08:24:00,58.3,58.3,30.10,NNW,338,0.0,0.0,100,0.00,BKN,,0.00,WeatherDisplay:10.37,2013-10-02 12:24:00,
2013-10-02 08:29:00,58.6,58.6,30.10,NNW,338,0.0,2.3,100,0.00,BKN,,0.00,WeatherDisplay:10.37,2013-10-02 12:29:00,
2013-10-02 08:34:00,58.8,58.8,30.10,NNW,338,0.0,0.0,100,0.00,BKN,,0.00,WeatherDisplay:10.37,2013-10-02 12:34:00,
2013-10-02 08:39:00,59.3,59.3,30.10,NNW,338,0.0,0.0,100,0.00,BKN,,0.00,WeatherDisplay:10.37,2013-10-02 12:39:00,
2013-10-02 08:44:00,60.4,60.4,30.10,NNW,338,0.7,2.3,100,0.00,BKN,,0.00,WeatherDisplay:10.37,2013-10-02 12:44:00,
2013-10-02 08:49:00,60.8,60.3,30.10,NNW,338,0.9,2.3,98,0.00,BKN,,0.00,WeatherDisplay:10.37,2013-10-02 12:49:00,
2013-10-02 08:54:00,61.1,60.3,30.10,NNW,338,0.0,0.0,97,0.00,BKN,,0.00,WeatherDisplay:10.37,2013-10-02 12:54:00,
2013-10-02 08:59:00,61.9,61.1,30.10,NNW,338,0.0,0.0,97,0.00,BKN,,0.00,WeatherDisplay:10.37,2013-10-02 12:59:00,
2013-10-02 09:04:00,62.0,60.6,30.10,NNW,338,0.9,2.7,95,0.00,SCT,,0.00,WeatherDisplay:10.37,2013-10-02 13:04:00,
2013-10-02 09:09:00,62.4,61.0,30.10,NNW,338,0.0,2.3,95,0.00,SCT,,0.00,WeatherDisplay:10.37,2013-10-02 13:09:00,
2013-10-02 09:14:00,62.9,61.5,30.10,NNW,338,0.0,2.3,95,0.00,SCT,,0.00,WeatherDisplay:10.37,2013-10-02 13:14:00,
2013-10-02 09:19:00,63.7,61.7,30.11,NNW,338,3.4,3.6,93,0.00,SCT,,0.00,WeatherDisplay:10.37,2013-10-02 13:19:00,
2013-10-02 09:24:00,63.5,61.5,30.11,WSW,248,3.7,4.6,93,0.00,SCT,,0.00,WeatherDisplay:10.37,2013-10-02 13:24:00,
2013-10-02 09:29:00,63.8,61.5,30.11,South,180,0.4,5.3,92,0.00,SCT,,0.00,WeatherDisplay:10.37,2013-10-02 13:29:00,
2013-10-02 09:34:00,65.3,62.6,30.12,SSW,202,4.2,5.8,91,0.00,SCT,,0.00,WeatherDisplay:10.37,2013-10-02 13:34:00,
2013-10-02 09:39:00,65.5,62.5,30.12,South,180,4.2,5.8,90,0.00,SCT,,0.00,WeatherDisplay:10.37,2013-10-02 13:39:00,
2013-10-02 09:44:00,66.2,62.6,30.11,SSE,158,5.0,7.0,88,0.00,SCT,,0.00,WeatherDisplay:10.37,2013-10-02 13:44:00,
2013-10-02 09:49:00,66.0,62.4,30.11,WSW,248,3.5,5.8,88,0.00,SCT,,0.00,WeatherDisplay:10.37,2013-10-02 13:49:00,
2013-10-02 09:54:00,66.0,62.7,30.11,SE,135,3.2,5.8,89,0.00,SCT,,0.00,WeatherDisplay:10.37,2013-10-02 13:54:00,
2013-10-02 09:59:00,65.8,62.5,30.11,SSE,158,2.9,6.9,89,0.00,SCT,,0.00,WeatherDisplay:10.37,2013-10-02 13:59:00,
2013-10-02 10:04:00,66.9,62.9,30.11,SSE,158,3.2,5.8,87,0.00,BKN,,0.00,WeatherDisplay:10.37,2013-10-02 14:04:00,
2013-10-02 10:09:00,68.2,63.5,30.11,SSE,158,4.6,7.0,85,0.00,BKN,,0.00,WeatherDisplay:10.37,2013-10-02 14:09:00,
2013-10-02 10:14:00,67.8,62.8,30.11,West,270,5.0,6.1,84,0.00,BKN,,0.00,WeatherDisplay:10.37,2013-10-02 14:14:00,
2013-10-02 10:19:00,67.8,63.1,30.11,SSE,158,3.7,5.3,85,0.00,BKN,,0.00,WeatherDisplay:10.37,2013-10-02 14:19:00,
2013-10-02 10:24:00,68.2,63.2,30.11,ESE,112,4.2,8.1,84,0.00,BKN,,0.00,WeatherDisplay:10.37,2013-10-02 14:24:00,
2013-10-02 10:29:00,69.2,63.8,30.11,SSE,158,5.0,6.1,83,0.00,BKN,,0.00,WeatherDisplay:10.37,2013-10-02 14:29:00,
2013-10-02 10:34:00,70.1,64.4,30.11,SSE,158,4.1,6.9,82,0.00,BKN,,0.00,WeatherDisplay:10.37,2013-10-02 14:34:00,
2013-10-02 10:39:00,69.8,64.1,30.11,SW,225,4.3,9.2,82,0.00,BKN,,0.00,WeatherDisplay:10.37,2013-10-02 14:39:00,
2013-10-02 10:44:00,70.0,63.9,30.11,SSW,202,6.0,8.1,81,0.00,BKN,,0.00,WeatherDisplay:10.37,2013-10-02 14:44:00,
2013-10-02 10:49:00,70.0,63.9,30.11,South,180,5.3,7.0,81,0.00,BKN,,0.00,WeatherDisplay:10.37,2013-10-02 14:49:00,
2013-10-02 10:54:00,69.4,63.7,30.11,SSE,158,5.2,9.2,82,0.00,BKN,,0.00,WeatherDisplay:10.37,2013-10-02 14:54:00,
2013-10-02 10:59:00,69.2,63.8,30.11,West,270,5.6,9.2,83,0.00,BKN,,0.00,WeatherDisplay:10.37,2013-10-02 14:59:00,
2013-10-02 11:04:00,69.2,63.8,30.11,SSW,202,2.3,3.6,83,0.00,OVC,,0.00,WeatherDisplay:10.37,2013-10-02 15:04:00,
2013-10-02 11:09:00,70.1,64.0,30.11,South,180,2.9,5.8,81,0.00,OVC,,0.00,WeatherDisplay:10.37,2013-10-02 15:09:00,
2013-10-02 11:14:00,71.6,64.8,30.11,North,360,1.4,5.8,79,0.00,OVC,,0.00,WeatherDisplay:10.37,2013-10-02 15:14:00,
2013-10-02 11:19:00,71.6,65.1,30.10,South,180,6.0,11.2,80,0.00,OVC,,0.00,WeatherDisplay:10.37,2013-10-02 15:19:00,
2013-10-02 11:24:00,72.3,65.1,30.10,South,180,3.8,8.1,78,0.00,OVC,,0.00,WeatherDisplay:10.37,2013-10-02 15:24:00,
2013-10-02 11:29:00,71.9,64.3,30.10,South,180,1.5,5.8,77,0.00,OVC,,0.00,WeatherDisplay:10.37,2013-10-02 15:29:00,
2013-10-02 11:34:00,73.0,65.0,30.10,WSW,248,5.2,9.2,76,0.00,BKN,,0.00,WeatherDisplay:10.37,2013-10-02 15:34:00,
2013-10-02 11:39:00,73.2,65.2,30.10,SSW,202,4.2,6.9,76,0.00,BKN,,0.00,WeatherDisplay:10.37,2013-10-02 15:39:00,
2013-10-02 11:44:00,73.6,65.2,30.10,SW,225,2.6,5.8,75,0.00,BKN,,0.00,WeatherDisplay:10.37,2013-10-02 15:44:00,
2013-10-02 11:46:00,73.7,65.3,30.10,SW,225,3.0,3.6,75,0.00,BKN,,0.00,WeatherDisplay:10.37,2013-10-02 15:46:00,
2013-10-02 11:51:00,75.2,65.6,30.10,West,270,6.5,9.2,72,0.00,BKN,,0.00,WeatherDisplay:10.37,2013-10-02 15:51:00,
2013-10-02 11:56:00,74.6,65.8,30.10,SSE,158,5.0,6.1,74,0.00,BKN,,0.00,WeatherDisplay:10.37,2013-10-02 15:56:00,
2013-10-02 12:01:00,75.2,66.0,30.10,WNW,292,4.0,8.1,73,0.00,BKN,,0.00,WeatherDisplay:10.37,2013-10-02 16:01:00,
2013-10-02 12:06:00,75.9,65.8,30.10,West,270,3.8,5.8,71,0.00,BKN,,0.00,WeatherDisplay:10.37,2013-10-02 16:06:00,
2013-10-02 12:11:00,75.9,66.6,30.10,ESE,112,4.0,4.6,73,0.00,BKN,,0.00,WeatherDisplay:10.37,2013-10-02 16:11:00,
2013-10-02 12:16:00,75.9,66.6,30.10,West,270,4.1,5.8,73,0.00,BKN,,0.00,WeatherDisplay:10.37,2013-10-02 16:16:00,
2013-10-02 12:21:00,75.4,66.2,30.10,WSW,248,5.8,8.1,73,0.00,BKN,,0.00,WeatherDisplay:10.37,2013-10-02 16:21:00,
2013-10-02 12:26:00,76.1,66.8,30.10,SSE,158,4.3,5.8,73,0.00,BKN,,0.00,WeatherDisplay:10.37,2013-10-02 16:26:00,
2013-10-02 12:31:00,76.3,67.0,30.10,SSE,158,4.2,7.0,73,0.00,BKN,,0.00,WeatherDisplay:10.37,2013-10-02 16:31:00,
2013-10-02 12:36:00,75.0,66.2,30.10,SSE,158,4.8,5.8,74,0.00,BKN,,0.00,WeatherDisplay:10.37,2013-10-02 16:36:00,
2013-10-02 12:41:00,75.2,66.4,30.10,WSW,248,5.4,9.2,74,0.00,BKN,,0.00,WeatherDisplay:10.37,2013-10-02 16:41:00,
2013-10-02 12:46:00,75.9,66.2,30.10,South,180,6.2,9.2,72,0.00,BKN,,0.00,WeatherDisplay:10.37,2013-10-02 16:46:00,
2013-10-02 12:51:00,75.2,66.4,30.10,SW,225,5.0,9.2,74,0.00,BKN,,0.00,WeatherDisplay:10.37,2013-10-02 16:51:00,
2013-10-02 12:56:00,75.7,66.0,30.09,WSW,248,9.0,10.4,72,0.00,BKN,,0.00,WeatherDisplay:10.37,2013-10-02 16:56:00,
2013-10-02 13:01:00,75.5,66.3,30.09,SSE,158,5.3,8.1,73,0.00,BKN,,0.00,WeatherDisplay:10.37,2013-10-02 17:01:00,
2013-10-02 13:06:00,75.5,66.6,30.09,South,180,1.0,3.5,74,0.00,BKN,,0.00,WeatherDisplay:10.37,2013-10-02 17:06:00,
2013-10-02 13:11:00,75.9,66.2,30.09,NNW,338,0.8,8.1,72,0.00,BKN,,0.00,WeatherDisplay:10.37,2013-10-02 17:11:00,
2013-10-02 13:16:00,76.4,66.3,30.09,WSW,248,4.8,9.2,71,0.00,BKN,,0.00,WeatherDisplay:10.37,2013-10-02 17:16:00,
2013-10-02 13:21:00,75.9,66.6,30.09,NW,315,3.4,6.1,73,0.00,BKN,,0.00,WeatherDisplay:10.37,2013-10-02 17:21:00,
2013-10-02 13:26:00,76.3,66.6,30.09,West,270,2.9,5.8,72,0.00,BKN,,0.00,WeatherDisplay:10.37,2013-10-02 17:26:00,
2013-10-02 13:31:00,76.3,66.2,30.08,WSW,248,4.5,5.8,71,0.00,BKN,,0.00,WeatherDisplay:10.37,2013-10-02 17:31:00,
2013-10-02 13:36:00,76.1,66.0,30.08,WSW,248,2.5,5.8,71,0.00,BKN,,0.00,WeatherDisplay:10.37,2013-10-02 17:36:00,
2013-10-02 13:41:00,76.3,66.6,30.08,West,270,0.3,6.9,72,0.00,BKN,,0.00,WeatherDisplay:10.37,2013-10-02 17:41:00,
2013-10-02 13:46:00,76.6,66.5,30.08,WNW,292,2.9,5.8,71,0.00,BKN,,0.00,WeatherDisplay:10.37,2013-10-02 17:46:00,
2013-10-02 13:51:00,77.0,66.1,30.08,SE,135,6.3,7.0,69,0.00,BKN,,0.00,WeatherDisplay:10.37,2013-10-02 17:51:00,
2013-10-02 13:56:00,77.9,66.5,30.07,South,180,3.5,5.8,68,0.00,BKN,,0.00,WeatherDisplay:10.37,2013-10-02 17:56:00,
2013-10-02 14:01:00,78.4,66.6,30.07,SSE,158,6.5,9.2,67,0.00,BKN,,0.00,WeatherDisplay:10.37,2013-10-02 18:01:00,
2013-10-02 14:06:00,78.1,65.8,30.07,SSE,158,6.0,9.5,66,0.00,BKN,,0.00,WeatherDisplay:10.37,2013-10-02 18:06:00,
2013-10-02 14:11:00,78.6,65.9,30.07,South,180,5.7,7.8,65,0.00,BKN,,0.00,WeatherDisplay:10.37,2013-10-02 18:11:00,
2013-10-02 14:16:00,79.7,66.9,30.07,SW,225,5.7,9.2,65,0.00,BKN,,0.00,WeatherDisplay:10.37,2013-10-02 18:16:00,
2013-10-02 14:21:00,79.1,66.3,30.07,NNE,22,2.8,9.2,65,0.00,BKN,,0.00,WeatherDisplay:10.37,2013-10-02 18:21:00,
2013-10-02 14:26:00,79.1,66.8,30.07,West,270,2.7,8.1,66,0.00,BKN,,0.00,WeatherDisplay:10.37,2013-10-02 18:26:00,
2013-10-02 14:31:00,79.7,66.0,30.07,NE,45,4.0,8.1,63,0.00,BKN,,0.00,WeatherDisplay:10.37,2013-10-02 18:31:00,
2013-10-02 14:36:00,79.7,66.0,30.07,WSW,248,4.8,6.1,63,0.00,BKN,,0.00,WeatherDisplay:10.37,2013-10-02 18:36:00,
2013-10-02 14:41:00,79.0,66.2,30.06,WNW,292,4.0,9.2,65,0.00,BKN,,0.00,WeatherDisplay:10.37,2013-10-02 18:41:00,
2013-10-02 14:46:00,79.3,65.6,30.06,SW,225,3.6,8.1,63,0.00,BKN,,0.00,WeatherDisplay:10.37,2013-10-02 18:46:00,
2013-10-02 14:51:00,80.0,66.3,30.06,SSW,202,5.6,7.0,63,0.00,BKN,,0.00,WeatherDisplay:10.37,2013-10-02 18:51:00,
2013-10-02 14:56:00,79.9,65.7,30.06,WSW,248,5.3,7.0,62,0.00,BKN,,0.00,WeatherDisplay:10.37,2013-10-02 18:56:00,
2013-10-02 15:01:00,80.4,66.2,30.06,NW,315,5.2,6.9,62,0.00,BKN,,0.00,WeatherDisplay:10.37,2013-10-02 19:01:00,
2013-10-02 15:06:00,81.3,66.6,30.06,SE,135,5.7,9.5,61,0.00,BKN,,0.00,WeatherDisplay:10.37,2013-10-02 19:06:00,
2013-10-02 15:11:00,79.7,65.5,30.06,ESE,112,6.9,10.4,62,0.00,BKN,,0.00,WeatherDisplay:10.37,2013-10-02 19:11:00,
2013-10-02 15:16:00,80.0,65.8,30.06,South,180,4.7,9.2,62,0.00,BKN,,0.00,WeatherDisplay:10.37,2013-10-02 19:16:00,
2013-10-02 15:21:00,79.5,64.4,30.06,WSW,248,9.7,15.0,60,0.00,BKN,,0.00,WeatherDisplay:10.37,2013-10-02 19:21:00,
2013-10-02 15:26:00,79.5,64.4,30.06,West,270,7.5,11.2,60,0.00,BKN,,0.00,WeatherDisplay:10.37,2013-10-02 19:26:00,
2013-10-02 15:31:00,79.3,64.2,30.05,West,270,5.9,9.2,60,0.00,SCT,,0.00,WeatherDisplay:10.37,2013-10-02 19:31:00,
2013-10-02 15:36:00,79.7,65.5,30.05,West,270,4.2,6.9,62,0.00,SCT,,0.00,WeatherDisplay:10.37,2013-10-02 19:36:00,
2013-10-02 15:41:00,79.3,65.2,30.05,SSE,158,3.3,9.2,62,0.00,SCT,,0.00,WeatherDisplay:10.37,2013-10-02 19:41:00,
2013-10-02 15:46:00,79.7,64.1,30.05,West,270,3.7,9.2,59,0.00,SCT,,0.00,WeatherDisplay:10.37,2013-10-02 19:46:00,
2013-10-02 15:51:00,80.4,64.8,30.05,SW,225,4.4,5.8,59,0.00,SCT,,0.00,WeatherDisplay:10.37,2013-10-02 19:51:00,
2013-10-02 15:56:00,79.9,64.3,30.05,WNW,292,7.5,11.5,59,0.00,SCT,,0.00,WeatherDisplay:10.37,2013-10-02 19:56:00,
2013-10-02 16:01:00,80.0,64.4,30.05,WSW,248,6.4,10.4,59,0.00,SCT,,0.00,WeatherDisplay:10.37,2013-10-02 20:01:00,
2013-10-02 16:06:00,80.2,65.1,30.04,WSW,248,3.9,8.1,60,0.00,SCT,,0.00,WeatherDisplay:10.37,2013-10-02 20:06:00,
2013-10-02 16:11:00,80.4,64.8,30.04,WSW,248,6.4,10.4,59,0.00,SCT,,0.00,WeatherDisplay:10.37,2013-10-02 20:11:00,
2013-10-02 16:16:00,80.4,65.7,30.04,WSW,248,4.3,9.2,61,0.00,SCT,,0.00,WeatherDisplay:10.37,2013-10-02 20:16:00,
2013-10-02 16:21:00,79.5,64.9,30.03,West,270,5.1,9.2,61,0.00,SCT,,0.00,WeatherDisplay:10.37,2013-10-02 20:21:00,
2013-10-02 16:26:00,79.7,65.5,30.03,NW,315,3.5,5.8,62,0.00,SCT,,0.00,WeatherDisplay:10.37,2013-10-02 20:26:00,
2013-10-02 16:31:00,80.6,65.4,30.04,West,270,3.9,9.2,60,0.00,SCT,,0.00,WeatherDisplay:10.37,2013-10-02 20:31:00,
2013-10-02 16:36:00,79.9,65.3,30.04,South,180,3.8,4.6,61,0.00,SCT,,0.00,WeatherDisplay:10.37,2013-10-02 20:36:00,
2013-10-02 16:41:00,82.6,66.3,30.04,South,180,2.6,5.8,58,0.00,SCT,,0.00,WeatherDisplay:10.37,2013-10-02 20:41:00,
2013-10-02 16:46:00,85.8,67.3,30.04,WNW,292,4.6,5.8,54,0.00,SCT,,0.00,WeatherDisplay:10.37,2013-10-02 20:46:00,
2013-10-02 16:51:00,85.3,66.2,30.04,West,270,3.7,8.1,53,0.00,SCT,,0.00,WeatherDisplay:10.37,2013-10-02 20:51:00,
2013-10-02 16:56:00,84.7,66.2,30.04,WSW,248,2.7,9.2,54,0.00,SCT,,0.00,WeatherDisplay:10.37,2013-10-02 20:56:00,
2013-10-02 17:01:00,83.3,65.5,30.04,WSW,248,3.8,8.1,55,0.00,BKN,,0.00,WeatherDisplay:10.37,2013-10-02 21:01:00,
2013-10-02 17:06:00,81.1,65.9,30.04,NW,315,3.2,4.6,60,0.00,BKN,,0.00,WeatherDisplay:10.37,2013-10-02 21:06:00,
2013-10-02 17:11:00,83.6,66.3,30.04,West,270,3.5,5.8,56,0.00,BKN,,0.00,WeatherDisplay:10.37,2013-10-02 21:11:00,
2013-10-02 17:16:00,84.5,66.0,30.04,West,270,5.0,6.1,54,0.00,BKN,,0.00,WeatherDisplay:10.37,2013-10-02 21:16:00,
2013-10-02 17:21:00,83.1,66.3,30.04,SSE,158,0.8,4.6,57,0.00,BKN,,0.00,WeatherDisplay:10.37,2013-10-02 21:21:00,
2013-10-02 17:26:00,83.3,66.5,30.04,West,270,4.6,7.0,57,0.00,BKN,,0.00,WeatherDisplay:10.37,2013-10-02 21:26:00,
2013-10-02 17:31:00,82.6,66.3,30.04,WSW,248,4.7,7.8,58,0.00,BKN,,0.00,WeatherDisplay:10.37,2013-10-02 21:31:00,
2013-10-02 17:36:00,81.7,66.0,30.04,SSW,202,2.0,3.6,59,0.00,BKN,,0.00,WeatherDisplay:10.37,2013-10-02 21:36:00,
2013-10-02 17:41:00,83.5,66.2,30.04,NW,315,3.6,4.6,56,0.00,BKN,,0.00,WeatherDisplay:10.37,2013-10-02 21:41:00,
2013-10-02 17:46:00,82.7,66.4,30.04,SSW,202,1.5,5.3,58,0.00,BKN,,0.00,WeatherDisplay:10.37,2013-10-02 21:46:00,
2013-10-02 17:51:00,83.5,66.7,30.04,West,270,1.8,9.2,57,0.00,BKN,,0.00,WeatherDisplay:10.37,2013-10-02 21:51:00,
2013-10-02 17:56:00,82.4,66.2,30.04,NNW,338,3.2,4.6,58,0.00,BKN,,0.00,WeatherDisplay:10.37,2013-10-02 21:56:00,
2013-10-02 18:01:00,80.9,66.2,30.04,West,270,4.3,7.0,61,0.00,SCT,,0.00,WeatherDisplay:10.37,2013-10-02 22:01:00,
2013-10-02 18:06:00,81.3,66.6,30.04,SSE,158,0.0,3.5,61,0.00,SCT,,0.00,WeatherDisplay:10.37,2013-10-02 22:06:00,
2013-10-02 18:11:00,80.4,67.1,30.04,SSE,158,0.0,0.0,64,0.00,SCT,,0.00,WeatherDisplay:10.37,2013-10-02 22:11:00,
2013-10-02 18:16:00,80.0,66.7,30.04,SSE,158,0.0,0.0,64,0.00,SCT,,0.00,WeatherDisplay:10.37,2013-10-02 22:16:00,
2013-10-02 18:21:00,79.7,67.4,30.04,SSE,158,0.0,0.0,66,0.00,SCT,,0.00,WeatherDisplay:10.37,2013-10-02 22:21:00,
2013-10-02 18:26:00,79.1,67.2,30.04,SSE,158,0.0,0.0,67,0.00,SCT,,0.00,WeatherDisplay:10.37,2013-10-02 22:26:00,
2013-10-02 18:31:00,77.7,67.6,30.04,SSE,158,0.0,0.0,71,0.00,SCT,,0.00,WeatherDisplay:10.37,2013-10-02 22:31:00,
2013-10-02 18:36:00,76.4,66.7,30.04,SSE,158,0.0,0.0,72,0.00,SCT,,0.00,WeatherDisplay:10.37,2013-10-02 22:36:00,
2013-10-02 18:41:00,75.5,66.6,30.04,SSE,158,0.0,0.0,74,0.00,SCT,,0.00,WeatherDisplay:10.37,2013-10-02 22:41:00,
2013-10-02 18:46:00,74.3,66.3,30.04,SSE,158,0.0,0.0,76,0.00,SCT,,0.00,WeatherDisplay:10.37,2013-10-02 22:46:00,
2013-10-02 18:51:00,73.6,66.3,30.04,SSE,158,0.0,0.0,78,0.00,SCT,,0.00,WeatherDisplay:10.37,2013-10-02 22:51:00,
2013-10-02 18:56:00,72.5,66.0,30.05,SSE,158,0.0,0.0,80,0.00,SCT,,0.00,WeatherDisplay:10.37,2013-10-02 22:56:00,
2013-10-02 19:01:00,71.9,65.8,30.05,SSE,158,0.0,0.0,81,0.00,SCT,,0.00,WeatherDisplay:10.37,2013-10-02 23:01:00,
2013-10-02 19:06:00,71.0,65.2,30.05,SSE,158,0.0,0.0,82,0.00,SCT,,0.00,WeatherDisplay:10.37,2013-10-02 23:06:00,
2013-10-02 19:11:00,70.5,65.1,30.05,NNW,338,0.0,0.0,83,0.00,SCT,,0.00,WeatherDisplay:10.37,2013-10-02 23:11:00,
2013-10-02 19:16:00,69.8,65.1,30.05,NNW,338,0.0,0.0,85,0.00,SCT,,0.00,WeatherDisplay:10.37,2013-10-02 23:16:00,
2013-10-02 19:21:00,69.4,64.7,30.05,NNW,338,0.0,0.0,85,0.00,SCT,,0.00,WeatherDisplay:10.37,2013-10-02 23:21:00,
2013-10-02 19:26:00,68.9,64.6,30.05,NNW,338,0.0,0.0,86,0.00,SCT,,0.00,WeatherDisplay:10.37,2013-10-02 23:26:00,
2013-10-02 19:31:00,68.3,64.3,30.05,NNW,338,0.0,0.0,87,0.00,SCT,,0.00,WeatherDisplay:10.37,2013-10-02 23:31:00,
2013-10-02 19:36:00,67.8,64.1,30.05,NNW,338,0.0,0.0,88,0.00,SCT,,0.00,WeatherDisplay:10.37,2013-10-02 23:36:00,
2013-10-02 19:41:00,67.4,64.1,30.05,NNW,338,0.0,0.0,89,0.00,SCT,,0.00,WeatherDisplay:10.37,2013-10-02 23:41:00,
2013-10-02 19:46:00,66.9,63.9,30.05,NNW,338,0.0,0.0,90,0.00,SCT,,0.00,WeatherDisplay:10.37,2013-10-02 23:46:00,
2013-10-02 19:49:00,66.5,63.8,30.05,NNW,338,0.0,0.0,91,0.00,SCT,SCT,0.00,WeatherDisplay:10.37,2013-10-02 23:49:00,
2013-10-02 19:54:00,66.2,63.8,30.05,NNW,338,0.0,0.0,92,0.00,SCT,SCT,0.00,WeatherDisplay:10.37,2013-10-02 23:54:00,
2013-10-02 20:00:00,66.0,63.6,30.05,NNW,338,0.0,0.0,92,0.00,SCT,,0.00,WeatherDisplay:10.37,2013-10-03 00:00:00,
2013-10-02 20:05:00,65.6,63.2,30.05,NNW,338,0.0,0.0,92,0.00,SCT,,0.00,WeatherDisplay:10.37,2013-10-03 00:05:00,
2013-10-02 20:10:00,65.3,63.2,30.05,NNW,338,0.0,0.0,93,0.00,SCT,,0.00,WeatherDisplay:10.37,2013-10-03 00:10:00,
2013-10-02 20:15:00,65.1,63.0,30.05,NNW,338,0.0,0.0,93,0.00,SCT,,0.00,WeatherDisplay:10.37,2013-10-03 00:15:00,
2013-10-02 20:20:00,64.9,63.2,30.05,NNW,338,0.0,0.0,94,0.00,SCT,,0.00,WeatherDisplay:10.37,2013-10-03 00:20:00,
2013-10-02 20:25:00,64.7,63.0,30.05,NNW,338,0.0,0.0,94,0.00,SCT,,0.00,WeatherDisplay:10.37,2013-10-03 00:25:00,
2013-10-02 20:30:00,64.6,62.9,30.05,NNW,338,0.0,0.0,94,0.00,SCT,,0.00,WeatherDisplay:10.37,2013-10-03 00:30:00,
2013-10-02 20:35:00,64.2,62.8,30.05,NNW,338,0.0,0.0,95,0.00,SCT,,0.00,WeatherDisplay:10.37,2013-10-03 00:35:00,
2013-10-02 20:40:00,64.0,62.6,30.05,NNW,338,0.0,0.0,95,0.00,SCT,,0.00,WeatherDisplay:10.37,2013-10-03 00:40:00,
2013-10-02 20:45:00,63.8,62.4,30.06,NNW,338,0.0,0.0,95,0.00,SCT,,0.00,WeatherDisplay:10.37,2013-10-03 00:45:00,
2013-10-02 20:50:00,63.7,62.3,30.06,NNW,338,0.0,0.0,95,0.00,SCT,,0.00,WeatherDisplay:10.37,2013-10-03 00:50:00,
2013-10-02 20:55:00,63.3,62.2,30.07,NNW,338,0.0,0.0,96,0.00,SCT,,0.00,WeatherDisplay:10.37,2013-10-03 00:55:00,
2013-10-02 21:00:00,63.1,62.0,30.07,NNW,338,0.0,0.0,96,0.00,SCT,,0.00,WeatherDisplay:10.37,2013-10-03 01:00:00,
2013-10-02 21:05:00,63.1,62.0,30.07,NNW,338,0.0,0.0,96,0.00,SKC,,0.00,WeatherDisplay:10.37,2013-10-03 01:05:00,
2013-10-02 21:10:00,62.9,62.1,30.07,NNW,338,0.0,0.0,97,0.00,SKC,,0.00,WeatherDisplay:10.37,2013-10-03 01:10:00,
2013-10-02 21:15:00,62.8,62.0,30.07,NNW,338,0.0,0.0,97,0.00,SKC,,0.00,WeatherDisplay:10.37,2013-10-03 01:15:00,
2013-10-02 21:20:00,62.6,61.8,30.07,NNW,338,0.0,0.0,97,0.00,SKC,,0.00,WeatherDisplay:10.37,2013-10-03 01:20:00,
2013-10-02 21:25:00,62.6,62.0,30.07,NNW,338,0.0,0.0,98,0.00,SKC,,0.00,WeatherDisplay:10.37,2013-10-03 01:25:00,
2013-10-02 21:30:00,62.2,61.6,30.07,NNW,338,0.0,0.0,98,0.00,SKC,,0.00,WeatherDisplay:10.37,2013-10-03 01:30:00,
2013-10-02 21:35:00,62.0,61.4,30.07,NNW,338,0.0,0.0,98,0.00,SKC,,0.00,WeatherDisplay:10.37,2013-10-03 01:35:00,
2013-10-02 21:40:00,62.0,61.4,30.07,NNW,338,0.0,0.0,98,0.00,SKC,,0.00,WeatherDisplay:10.37,2013-10-03 01:40:00,
2013-10-02 21:45:00,61.9,61.3,30.07,NNW,338,0.0,0.0,98,0.00,SKC,,0.00,WeatherDisplay:10.37,2013-10-03 01:45:00,
2013-10-02 21:50:00,61.7,61.1,30.07,NNW,338,0.0,0.0,98,0.00,SKC,,0.00,WeatherDisplay:10.37,2013-10-03 01:50:00,
2013-10-02 21:55:00,61.7,61.1,30.07,NNW,338,0.0,0.0,98,0.00,SKC,,0.00,WeatherDisplay:10.37,2013-10-03 01:55:00,
2013-10-02 22:00:00,61.5,61.2,30.07,NNW,338,0.0,0.0,99,0.00,SKC,,0.00,WeatherDisplay:10.37,2013-10-03 02:00:00,
2013-10-02 22:05:00,61.5,61.2,30.07,NNW,338,0.0,0.0,99,0.00,SKC,,0.00,WeatherDisplay:10.37,2013-10-03 02:05:00,
2013-10-02 22:10:00,61.5,61.5,30.07,NNW,338,0.0,0.0,100,0.00,SKC,,0.00,WeatherDisplay:10.37,2013-10-03 02:10:00,
2013-10-02 22:15:00,61.3,61.3,30.07,NNW,338,0.0,0.0,100,0.00,SKC,,0.00,WeatherDisplay:10.37,2013-10-03 02:15:00,
2013-10-02 22:20:00,61.0,61.0,30.07,NNW,338,0.0,0.0,100,0.00,SKC,,0.00,WeatherDisplay:10.37,2013-10-03 02:20:00,
2013-10-02 22:24:00,60.8,60.8,30.07,NNW,338,0.0,0.0,100,0.00,SKC,,0.00,WeatherDisplay:10.37,2013-10-03 02:24:00,
2013-10-02 22:29:00,60.6,60.6,30.07,NNW,338,0.0,0.0,100,0.00,SKC,,0.00,WeatherDisplay:10.37,2013-10-03 02:29:00,
2013-10-02 22:34:00,60.6,60.6,30.07,NNW,338,0.0,0.0,100,0.00,SKC,,0.00,WeatherDisplay:10.37,2013-10-03 02:34:00,
2013-10-02 22:39:00,60.6,60.6,30.07,NNW,338,0.0,0.0,100,0.00,SKC,,0.00,WeatherDisplay:10.37,2013-10-03 02:39:00,
2013-10-02 22:44:00,60.4,60.4,30.08,NNW,338,0.0,0.0,100,0.00,SKC,,0.00,WeatherDisplay:10.37,2013-10-03 02:44:00,
2013-10-02 22:49:00,60.2,60.2,30.08,NNW,338,0.0,0.0,100,0.00,SKC,,0.00,WeatherDisplay:10.37,2013-10-03 02:49:00,
2013-10-02 22:54:00,60.2,60.2,30.08,NNW,338,0.0,0.0,100,0.00,SKC,,0.00,WeatherDisplay:10.37,2013-10-03 02:54:00,
2013-10-02 22:59:00,60.1,60.1,30.08,NNW,338,0.0,0.0,100,0.00,SKC,,0.00,WeatherDisplay:10.37,2013-10-03 02:59:00,
2013-10-02 23:04:00,60.1,60.1,30.08,NNW,338,0.0,0.0,100,0.00,SKC,,0.00,WeatherDisplay:10.37,2013-10-03 03:04:00,
2013-10-02 23:09:00,60.1,60.1,30.08,NNW,338,0.0,0.0,100,0.00,SKC,,0.00,WeatherDisplay:10.37,2013-10-03 03:09:00,
2013-10-02 23:14:00,59.7,59.7,30.08,NNW,338,0.0,0.0,100,0.00,SKC,,0.00,WeatherDisplay:10.37,2013-10-03 03:14:00,
2013-10-02 23:19:00,59.7,59.7,30.08,NNW,338,0.0,0.0,100,0.00,SKC,,0.00,WeatherDisplay:10.37,2013-10-03 03:19:00,
2013-10-02 23:24:00,59.7,59.7,30.08,NNW,338,0.0,0.0,100,0.00,SKC,,0.00,WeatherDisplay:10.37,2013-10-03 03:24:00,
2013-10-02 23:29:00,59.5,59.5,30.08,NNW,338,0.0,0.0,100,0.00,SKC,,0.00,WeatherDisplay:10.37,2013-10-03 03:29:00,
2013-10-02 23:34:00,59.5,59.5,30.08,NNW,338,0.0,0.0,100,0.00,SKC,,0.00,WeatherDisplay:10.37,2013-10-03 03:34:00,
2013-10-02 23:39:00,59.5,59.5,30.08,NNW,338,0.0,0.0,100,0.00,SKC,,0.00,WeatherDisplay:10.37,2013-10-03 03:39:00,
2013-10-02 23:44:00,59.2,59.2,30.09,NNW,338,0.0,0.0,100,0.00,SKC,,0.00,WeatherDisplay:10.37,2013-10-03 03:44:00,
2013-10-02 23:49:00,59.0,59.0,30.09,NNW,338,0.0,0.0,100,0.00,SKC,,0.00,WeatherDisplay:10.37,2013-10-03 03:49:00,
2013-10-02 23:54:00,59.0,59.0,30.08,NNW,338,0.0,0.0,100,0.00,SKC,,0.00,WeatherDisplay:10.37,2013-10-03 03:54:00,
2013-10-02 23:59:00,58.8,58.8,30.08,NNW,338,0.0,0.0,100,0.00,SKC,,0.00,WeatherDisplay:10.37,2013-10-03 03:59:00,